TimeAKST,TemperatureF,Dew PointF,Humidity,Sea Level PressureIn,VisibilityMPH,Wind Direction,Wind SpeedMPH,Gust SpeedMPH,PrecipitationIn,Events,Conditions,WindDirDegrees,DateUTC
12:16 AM,-9999,-9999,N/A,29.48,10.0,SE,29.9,36.8,N/A,,Scattered Clouds,140,2012-11-09 09:16:00
12:36 AM,-9999,-9999,N/A,29.44,10.0,SE,29.9,42.6,N/A,,Mostly Cloudy,130,2012-11-09 09:36:00
12:56 AM,-9999,-9999,N/A,29.44,10.0,SE,31.1,40.3,N/A,,Partly Cloudy,140,2012-11-09 09:56:00
1:16 AM,-9999,-9999,N/A,29.43,10.0,SE,28.8,38.0,N/A,,Clear,130,2012-11-09 10:16:00
1:36 AM,-9999,-9999,N/A,29.42,10.0,SE,29.9,39.1,N/A,,Scattered Clouds,140,2012-11-09 10:36:00
1:56 AM,-9999,-9999,N/A,29.38,10.0,SE,35.7,43.7,N/A,,Mostly Cloudy,140,2012-11-09 10:56:00
2:16 AM,-9999,-9999,N/A,29.38,10.0,SE,33.4,47.2,N/A,,Partly Cloudy,140,2012-11-09 11:16:00
2:36 AM,-9999,-9999,N/A,29.39,10.0,SE,35.7,40.3,N/A,,Clear,140,2012-11-09 11:36:00
2:56 AM,-9999,-9999,N/A,29.37,10.0,SE,33.4,42.6,N/A,,Clear,140,2012-11-09 11:56:00
3:16 AM,46.4,41.0,81,29.40,10.0,SE,25.3,38.0,N/A,,Clear,130,2012-11-09 12:16:00
3:36 AM,46.4,39.2,76,29.40,10.0,SE,20.7,28.8,N/A,,Clear,130,2012-11-09 12:36:00
3:56 AM,46.4,41.0,81,29.40,10.0,SE,21.9,25.3,N/A,,Clear,140,2012-11-09 12:56:00
4:16 AM,46.4,42.8,87,29.37,10.0,SE,25.3,32.2,N/A,,Clear,140,2012-11-09 13:16:00
4:36 AM,46.4,41.0,81,29.36,10.0,SE,32.2,38.0,N/A,,Clear,140,2012-11-09 13:36:00
4:56 AM,46.4,41.0,81,29.36,10.0,SE,25.3,31.1,N/A,,Clear,140,2012-11-09 13:56:00
5:16 AM,46.4,42.8,87,29.36,10.0,SE,24.2,29.9,N/A,,Clear,140,2012-11-09 14:16:00
5:36 AM,-9999,-9999,N/A,29.33,10.0,SE,28.8,33.4,N/A,,Clear,140,2012-11-09 14:36:00
5:56 AM,-9999,-9999,N/A,29.33,10.0,SE,28.8,36.8,N/A,,Clear,130,2012-11-09 14:56:00
6:16 AM,-9999,-9999,N/A,29.34,10.0,SE,26.5,33.4,N/A,,Clear,130,2012-11-09 15:16:00
6:36 AM,-9999,-9999,N/A,29.33,10.0,SE,27.6,40.3,N/A,,Clear,130,2012-11-09 15:36:00
6:56 AM,-9999,-9999,N/A,29.34,10.0,SE,26.5,32.2,N/A,,Clear,140,2012-11-09 15:56:00
7:16 AM,46.4,39.2,76,29.35,10.0,SE,25.3,29.9,N/A,,Clear,130,2012-11-09 16:16:00
7:36 AM,46.4,42.8,87,29.35,10.0,SE,24.2,28.8,N/A,,Clear,130,2012-11-09 16:36:00
7:56 AM,46.4,41.0,81,29.36,10.0,SE,19.6,26.5,N/A,,Clear,130,2012-11-09 16:56:00
8:16 AM,46.4,41.0,81,29.35,10.0,SE,19.6,25.3,N/A,,Clear,130,2012-11-09 17:16:00
8:36 AM,46.4,41.0,81,29.35,10.0,SE,21.9,26.5,N/A,,Clear,130,2012-11-09 17:36:00
8:56 AM,46.4,42.8,87,29.36,10.0,SE,23.0,27.6,N/A,,Clear,130,2012-11-09 17:56:00
9:16 AM,-9999,-9999,N/A,29.34,10.0,SE,25.3,31.1,N/A,,Partly Cloudy,130,2012-11-09 18:16:00
9:36 AM,46.4,41.0,81,29.36,10.0,SE,21.9,29.9,N/A,,Clear,140,2012-11-09 18:36:00
9:56 AM,46.4,41.0,81,29.36,10.0,SE,24.2,31.1,N/A,,Clear,130,2012-11-09 18:56:00
10:16 AM,-9999,-9999,N/A,29.34,10.0,SE,26.5,34.5,N/A,,Clear,130,2012-11-09 19:16:00
10:36 AM,-9999,-9999,N/A,29.34,10.0,SE,27.6,33.4,N/A,,Clear,140,2012-11-09 19:36:00
10:56 AM,-9999,-9999,N/A,29.33,10.0,SE,31.1,38.0,N/A,,Clear,140,2012-11-09 19:56:00
11:16 AM,-9999,-9999,N/A,29.34,10.0,SE,28.8,36.8,N/A,,Clear,130,2012-11-09 20:16:00
11:36 AM,-9999,-9999,N/A,29.36,10.0,SE,27.6,34.5,N/A,,Scattered Clouds,140,2012-11-09 20:36:00
11:56 AM,48.2,42.8,82,29.37,10.0,SE,25.3,33.4,N/A,,Mostly Cloudy,140,2012-11-09 20:56:00
12:16 PM,48.2,41.0,76,29.37,10.0,SE,28.8,33.4,N/A,,Scattered Clouds,140,2012-11-09 21:16:00
12:36 PM,-9999,-9999,N/A,29.36,10.0,SE,28.8,34.5,N/A,,Clear,140,2012-11-09 21:36:00
12:56 PM,-9999,-9999,N/A,29.34,10.0,SE,31.1,34.5,N/A,,Clear,140,2012-11-09 21:56:00
1:16 PM,48.2,42.8,82,29.35,10.0,SSE,28.8,32.2,N/A,,Clear,150,2012-11-09 22:16:00
1:36 PM,48.2,42.8,82,29.35,10.0,SSE,27.6,33.4,N/A,,Clear,150,2012-11-09 22:36:00
1:56 PM,48.2,39.2,71,29.34,10.0,SSE,24.2,32.2,N/A,,Clear,150,2012-11-09 22:56:00
2:16 PM,-9999,-9999,N/A,29.32,10.0,SSE,29.9,34.5,N/A,,Clear,150,2012-11-09 23:16:00
2:36 PM,46.4,41.0,81,29.32,10.0,SE,23.0,31.1,N/A,,Clear,140,2012-11-09 23:36:00
2:56 PM,46.4,39.2,76,29.32,10.0,SSE,19.6,-,N/A,,Mostly Cloudy,150,2012-11-09 23:56:00
3:16 PM,46.4,41.0,81,29.32,10.0,SSE,20.7,-,N/A,,Mostly Cloudy,150,2012-11-10 00:16:00
3:36 PM,46.4,39.2,76,29.31,10.0,SSE,16.1,21.9,N/A,,Partly Cloudy,150,2012-11-10 00:36:00
3:56 PM,46.4,41.0,81,29.29,10.0,SE,23.0,29.9,N/A,,Partly Cloudy,140,2012-11-10 00:56:00
4:16 PM,48.2,39.2,71,29.28,10.0,SE,25.3,32.2,N/A,,Clear,140,2012-11-10 01:16:00
4:36 PM,-9999,-9999,N/A,29.27,10.0,SE,27.6,33.4,N/A,,Clear,140,2012-11-10 01:36:00
4:56 PM,48.2,39.2,71,29.27,10.0,SSE,27.6,35.7,N/A,,Clear,160,2012-11-10 01:56:00
5:16 PM,46.4,39.2,76,29.27,10.0,SSE,25.3,32.2,N/A,,Clear,150,2012-11-10 02:16:00
5:36 PM,46.4,39.2,76,29.29,10.0,SE,17.3,23.0,N/A,,Clear,140,2012-11-10 02:36:00
5:56 PM,44.6,39.2,81,29.29,10.0,ESE,13.8,-,N/A,,Clear,110,2012-11-10 02:56:00
6:16 PM,46.4,39.2,76,29.30,10.0,SE,6.9,-,N/A,,Clear,130,2012-11-10 03:16:00
6:36 PM,46.4,39.2,76,29.29,10.0,ENE,10.4,-,N/A,,Partly Cloudy,70,2012-11-10 03:36:00
6:56 PM,46.4,39.2,76,29.30,10.0,ENE,13.8,20.7,N/A,,Mostly Cloudy,70,2012-11-10 03:56:00
7:16 PM,46.4,39.2,76,29.31,10.0,SE,4.6,-,N/A,,Overcast,140,2012-11-10 04:16:00
7:36 PM,44.6,37.4,76,29.30,10.0,ESE,10.4,-,N/A,,Scattered Clouds,110,2012-11-10 04:36:00
7:56 PM,46.4,37.4,71,29.31,10.0,ESE,9.2,-,N/A,,Partly Cloudy,120,2012-11-10 04:56:00
8:16 PM,44.6,39.2,81,29.31,10.0,East,3.5,-,N/A,,Partly Cloudy,90,2012-11-10 05:16:00
8:36 PM,44.6,37.4,76,29.30,10.0,ESE,5.8,-,N/A,,Partly Cloudy,120,2012-11-10 05:36:00
8:56 PM,42.8,37.4,81,29.30,10.0,ESE,9.2,-,N/A,,Clear,120,2012-11-10 05:56:00
9:16 PM,42.8,37.4,81,29.30,10.0,SSE,9.2,-,N/A,,Clear,160,2012-11-10 06:16:00
9:36 PM,42.8,37.4,81,29.31,10.0,SE,6.9,-,N/A,,Clear,130,2012-11-10 06:36:00
9:56 PM,44.6,37.4,76,29.30,10.0,SE,12.7,-,N/A,,Clear,130,2012-11-10 06:56:00
10:16 PM,44.6,37.4,76,29.32,10.0,NW,3.5,-,N/A,,Mostly Cloudy,310,2012-11-10 07:16:00
10:36 PM,44.6,39.2,81,29.32,10.0,South,4.6,-,N/A,,Overcast,180,2012-11-10 07:36:00
10:56 PM,44.6,37.4,76,29.32,10.0,Calm,Calm,-,N/A,,Overcast,0,2012-11-10 07:56:00
11:16 PM,44.6,37.4,76,29.33,10.0,North,8.1,-,N/A,,Overcast,10,2012-11-10 08:16:00
11:36 PM,44.6,39.2,81,29.33,9.0,NW,6.9,-,N/A,,Overcast,320,2012-11-10 08:36:00
11:56 PM,42.8,39.2,87,29.34,8.0,Calm,Calm,-,N/A,,Overcast,0,2012-11-10 08:56:00